Home   Weather   Copenhagen   Past weeks
Flag for Canada

Past Weather in Copenhagen, Ontario, Canada — Yesterday and Last 2 Weeks

Now
64 °F

Broken clouds.


Feels Like: 64 °F
Forecast: 75 / 52 °F
Wind: 14 mph from Southeast

Location: London Weather Station

Current Time: May 25, 2019 at 11:15:22 am

Latest Report: May 25, 2019 at 10:00 am


Visibility: 12 mi

Pressure: 29.96 "Hg

Humidity: 78%

Dew Point: 57 °F

Location of CopenhagenLocation

Past Weather in Copenhagen — Graph

°F

Copenhagen Temperature Yesterday

Maximum temperature yesterday: 61 °F (at 2:00 pm)
Minimum temperature yesterday: 48 °F (at 5:00 am)
Average temperature yesterday: 56 °F

High & Low Weather Summary for the Past Weeks

 TemperatureHumidityPressure
High79 °F (May 19, 1:00 pm)100% (May 10, 1:00 pm)30.21 "Hg (May 10, 1:00 pm)
Low36 °F (May 11, 4:36 am)36% (May 23, 6:00 pm)29.67 "Hg (May 17, 2:00 am)
Average52 °F77%29.95 "Hg
* Reported May 10 10:00 am — May 25 10:00 am, Copenhagen. Weather by CustomWeather, © 2019

Note: Actual official high and low records may vary slightly from our data, if they occured in-between our weather recording intervals... More about our weather records

Advertising

Copenhagen Weather History for the Previous 24 Hours

Scroll right to see more
 ConditionsComfort  
Time TempWeatherWind HumidityBarometerVisibility
10:00 am
Sat, May 25
64 °FBroken clouds.14 mph78%29.96 "Hg12 mi
9:00 am61 °FPartly sunny.13 mph83%29.99 "Hg12 mi
8:00 am55 °FMostly cloudy.10 mph100%30.02 "Hg10 mi
7:40 am55 °FStrong thunderstorms. Mostly cloudy.7 mph94%30.04 "Hg3 mi
7:36 am55 °FThunderstorms. Mostly cloudy.3 mph94%30.04 "Hg2 mi
7:18 am54 °FThunderstorms. Mostly cloudy.10 mph100%30.04 "Hg6 mi
7:07 am54 °FThunderstorms. Cloudy.14 mph100%30.03 "Hg6 mi
6:54 am54 °FThunderstorms. Mostly cloudy.10 mph100%30.01 "Hg6 mi
6:25 am54 °FThunderstorms. Broken clouds.10 mph100%30.01 "Hg6 mi
6:17 am54 °FThunderstorms. Fog.6 mph100%30.03 "Hg2 mi
5:45 am54 °FThunderstorms. Mostly cloudy.9 mph94%30.01 "Hg3 mi
5:37 am54 °FThunderstorms. Mostly cloudy.9 mph94%30.03 "Hg1 mi
5:00 am55 °FThunderstorms. Mostly cloudy.7 mph82%30.03 "Hg12 mi
4:00 am55 °FOvercast.7 mph88%30.05 "Hg15 mi
3:00 am54 °FMostly cloudy.6 mph94%30.06 "Hg15 mi
2:00 am54 °FPartly cloudy.7 mph94%30.07 "Hg15 mi
1:00 am54 °FPartly cloudy.5 mph94%30.09 "Hg15 mi
12:00 am52 °FPassing clouds.6 mph94%30.11 "Hg15 mi
11:00 pm
Fri, May 24
54 °FPassing clouds.No wind94%30.13 "Hg15 mi
10:00 pm55 °FPartly cloudy.3 mph88%30.13 "Hg15 mi
9:00 pm55 °FPartly cloudy.3 mph82%30.11 "Hg15 mi
8:00 pm59 °FBroken clouds.5 mph77%30.13 "Hg15 mi
7:00 pm59 °FMostly cloudy.No wind77%30.11 "Hg15 mi
6:00 pm61 °FMostly cloudy.6 mph68%30.16 "Hg15 mi
5:00 pm61 °FMostly cloudy.6 mph72%30.16 "Hg15 mi
4:09 pm59 °FPartly sunny.9 mph77%30.17 "Hg15 mi
3:43 pm59 °FMostly cloudy.8 mph72%30.17 "Hg15 mi
3:26 pm59 °FSprinkles. Mostly cloudy.9 mph77%30.18 "Hg15 mi
3:11 pm61 °FMostly cloudy.9 mph72%30.18 "Hg15 mi
3:00 pm61 °FSprinkles. Mostly cloudy.8 mph72%30.17 "Hg15 mi
2:00 pm61 °FPartly sunny.7 mph68%30.14 "Hg15 mi
1:00 pm59 °FBroken clouds.7 mph72%30.15 "Hg15 mi
12:00 pm59 °FPartly sunny.10 mph72%30.16 "Hg15 mi
11:00 am57 °FBroken clouds.13 mph77%30.17 "Hg15 mi
Weather by CustomWeather, © 2019

See weather overview